This is the latest recevied weather packets stored in our database for station/object W3BRL. If no packets are shown the sender has not sent any weather packets the latest 10 day(s).
| Time | Temp. | Humidity | Pressure | Rain* | Wind** | Luminosity | Snow |
|---|---|---|---|---|---|---|---|
| 1777906723 | 17.22° C | 42% | 1008.6 hPa | 0 mm | - | 692 W/m² | - |
| 1777906419 | 17.22° C | 43% | 1008.6 hPa | 0 mm | - | 682 W/m² | - |
| 1777906116 | 17.22° C | 43% | 1008.3 hPa | 0 mm | - | 670 W/m² | - |
| 1777905812 | 17.22° C | 41% | 1008.5 hPa | 0 mm | - | 658 W/m² | - |
| 1777905510 | 17.22° C | 41% | 1008.5 hPa | 0 mm | - | 647 W/m² | - |
| 1777905206 | 16.67° C | 43% | 1008.4 hPa | 0 mm | - | 634 W/m² | - |
| 1777904904 | 16.67° C | 43% | 1008.4 hPa | 0 mm | - | 621 W/m² | - |
| 1777904601 | 16.11° C | 43% | 1008.5 hPa | 0 mm | - | 606 W/m² | - |
| 1777904298 | 16.11° C | 43% | 1008.6 hPa | 0 mm | - | 594 W/m² | - |
| 1777903995 | 15.56° C | 44% | 1008.8 hPa | 0 mm | - | 581 W/m² | - |
| 1777903692 | 15.56° C | 44% | 1008.7 hPa | 0 mm | - | 567 W/m² | - |
| 1777903388 | 15.56° C | 44% | 1008.9 hPa | 0 mm | - | 554 W/m² | - |
| 1777903084 | 15° C | 45% | 1008.9 hPa | 0 mm | - | 538 W/m² | - |
| 1777902780 | 15° C | 45% | 1008.9 hPa | 0 mm | - | 526 W/m² | - |
| 1777902479 | 15° C | 45% | 1008.9 hPa | 0 mm | - | 510 W/m² | - |
| 1777902175 | 15° C | 45% | 1009.2 hPa | 0 mm | - | 498 W/m² | - |
| 1777901873 | 14.44° C | 45% | 1009 hPa | 0 mm | - | 480 W/m² | - |
| 1777901570 | 15° C | 45% | 1009.1 hPa | 0 mm | - | 469 W/m² | - |
| 1777901267 | 14.44° C | 46% | 1009.1 hPa | 0 mm | - | 454 W/m² | - |
| 1777900965 | 14.44° C | 46% | 1009.1 hPa | 0 mm | - | 441 W/m² | - |
| 1777900662 | 13.89° C | 46% | 1009.1 hPa | 0 mm | - | 425 W/m² | - |
| 1777900359 | 13.89° C | 47% | 1009 hPa | 0 mm | - | 362 W/m² | - |
| 1777900057 | 13.89° C | 47% | 1008.9 hPa | 0 mm | - | 393 W/m² | - |
| 1777899752 | 13.33° C | 47% | 1009 hPa | 0 mm | - | 376 W/m² | - |
| 1777899449 | 13.33° C | 48% | 1009 hPa | 0 mm | - | 361 W/m² | - |
* Rain latest hour (hover to see other rain measurements)
** Current wind speed in m/s (hover to see current wind gust speed)